Ana Sayfa
METAR-TAF:

METAR-TAF

Havaalanları :

Griffith, Avustralya

Enlem: 34-15-06S, Boylam: 146-04-00E, yükseklik: 134 m

Güncel hava durumu gözlemi

Rapor saat 07:00 UTC de 37 dakika önce yapıldı.
Rüzgar güney/güneybatıdan 12 kt
Sıcaklık 35°C
Nem 13%
Basınç 1011 hPa
Görüş mesafesi 10 km veya daha fazla

METAR: YGTH 280700Z AUTO 21012KT 9999 // NCD 35/02 Q1011

Saat: 18:37 (07:37 UTC)


TAF: eksik

4.000'den fazla havaalanı için hava durumu gözlemleri ve tahminleri (METAR ve TAF raporları).

Kullanılabilir istasyonlar harita üzerinde sarı ve kırmızı noktalarla gösterilir.

İstasyonun adını görmek için fareyi noktanın üzerinde gezdirin.

Sonrasında hava gözlem ve tahminlerini görmek için tıklayın.

Haritayı değiştirmek için: yaklaştırmak için siyah artı işaretli yeşil düğmeye ve uzaklaştırmak için de eksi işaretli düğmeye hızla tıklayın; bitişik haritalar için yeşil okları kullanın.


METAR-TAF: